Tracking 19199 objects as of 25-Jun-2018
HD Live streaming from Space Station
objects crossing your sky now

FENGYUN 1C DEB

Track FENGYUN 1C DEB now!
10-day predictions


NORAD ID: 38158
Int'l Code: 1999-025ERF
Perigee: 854.1 km
Apogee: 1,180.5 km
Inclination: 99.5 °
Period: 105.3 minutes
Semi major axis: 7388 km
RCS: 0.0057 m2 (small)
Launch date: May 10, 1999
Source: People's Republic of China (PRC)
Launch site: Taiyaun Space Center, China (TSC)

Note: This is SATELLITE DEBRIS
aabbcc
Your satellite tracking list
Your tracking list is empty




NASA's NSSDC Master Catalog

Two Line Element Set (TLE):
1 38158U 99025ERF 18166.95851882  .00000241  00000-0  28970-3 0  9994
2 38158  99.5470 219.8189 0220921 330.8801  28.0170 13.67053308438186
Source of the keplerian elements: AFSPC